Weather History for KGEZ - May, 2013

Change the Weather History Date:

Sunday, May 12, 2013

  Actual Average Record
Temperature  
Mean Temperature 49 °F 62 °F  
Max Temperature 58 °F 72 °F 86 °F (2011)
Min Temperature 40 °F 51 °F 40 °F (2013)
Degree Days  
Heating Degree Days 16 5  
Month to date heating degree days 41 75  
Since 1 July heating degree days 5034 5335  
Cooling Degree Days 0 2  
Month to date cooling degree days 19 13  
Year to date cooling degree days 35 26  
Moisture  
Dew Point 32 °F    
Average Humidity 57    
Maximum Humidity 82    
Minimum Humidity 32    
Precipitation  
Precipitation 0.00 in 0.18 in 1.62 in (2002)
Month to date precipitation 0.95 2.23  
Year to date precipitation 10.68 14.73  
Sea Level Pressure  
Sea Level Pressure 30.07 in    
Wind  
Wind Speed 10 mph (WNW)    
Max Wind Speed 23 mph    
Max Gust Speed 31 mph    
Visibility 10 miles    
Events      
T = Trace of Precipitation, MM = Missing Value Source: NWS Daily Summary

Daily Weather History Graph

Daily Weather History Graph

Search for Another Location

Airport or City:

Trip Planner

Search our weather history database for the weather conditions in past years. The results will help you decide how hot, cold, wet, or windy it might be!

Date:

Astronomy

May. 12, 2013 Rise Set
Actual Time 6:31 AM EDT 8:48 PM EDT
Civil Twilight 6:01 AM EDT 9:18 PM EDT
Nautical Twilight 5:24 AM EDT 9:55 PM EDT
Astronomical Twilight 4:43 AM EDT 10:36 PM EDT
Moon 8:26 AM EDT (5/12) 11:14 PM EDT (5/12)
Length of Visible Light 15h 16m
Length of Day
14h 16m
Waxing Crescent, 6% of the Moon is Illuminated
May 12
Waxing Crescent
May 18
First Quarter
May 25
Full
May 31
Last Quarter
Jun 8
New

Hourly Weather History & Observations

Time (EDT) Temp. Windchill Dew Point Humidity Pressure Visibility Wind Dir Wind Speed Gust Speed Precip Events Conditions
12:53 AM 45.0 °F 43.5 °F 37.9 °F 76% 30.03 in 10.0 mi NNW 3.5 mph - N/A   Partly Cloudy
1:53 AM 44.1 °F 42.5 °F 37.9 °F 79% 30.04 in 10.0 mi West 3.5 mph - N/A   Clear
2:53 AM 42.1 °F 39.2 °F 37.9 °F 85% 30.04 in 10.0 mi West 4.6 mph - N/A   Clear
3:53 AM 44.1 °F 40.1 °F 36.0 °F 73% 30.03 in 10.0 mi West 6.9 mph - N/A   Clear
4:53 AM 41.0 °F 36.4 °F 35.1 °F 79% 30.03 in 10.0 mi West 6.9 mph - N/A   Clear
5:53 AM 42.1 °F 37.7 °F 33.1 °F 70% 30.03 in 10.0 mi WNW 6.9 mph - N/A   Clear
6:53 AM 39.9 °F 35.8 °F 33.1 °F 77% 30.04 in 10.0 mi West 5.8 mph - N/A   Clear
7:53 AM 43.0 °F 38.8 °F 34.0 °F 71% 30.06 in 10.0 mi West 6.9 mph - N/A   Clear
8:53 AM 46.9 °F - 34.0 °F 61% 30.07 in 10.0 mi NW 13.8 mph - N/A   Clear
9:53 AM 50.0 °F - 30.0 °F 46% 30.08 in 10.0 mi WNW 13.8 mph 19.6 mph N/A   Clear
10:53 AM 51.1 °F - 28.9 °F 43% 30.08 in 10.0 mi WNW 15.0 mph 23.0 mph N/A   Scattered Clouds
11:53 AM 52.0 °F - 30.0 °F 43% 30.09 in 10.0 mi WNW 17.3 mph 24.2 mph N/A   Mostly Cloudy
12:53 PM 53.1 °F - 30.9 °F 43% 30.10 in 10.0 mi NW 16.1 mph 26.5 mph N/A   Scattered Clouds
1:53 PM 54.0 °F - 30.9 °F 41% 30.11 in 10.0 mi WNW 13.8 mph 21.9 mph N/A   Scattered Clouds
2:53 PM 57.0 °F - 32.0 °F 39% 30.11 in 10.0 mi WNW 16.1 mph 24.2 mph N/A   Mostly Cloudy
3:53 PM 55.0 °F - 30.0 °F 38% 30.10 in 10.0 mi NW 18.4 mph - N/A   Scattered Clouds
4:53 PM 57.0 °F - 30.0 °F 36% 30.09 in 10.0 mi WNW 15.0 mph 23.0 mph N/A   Scattered Clouds
5:53 PM 57.0 °F - 28.0 °F 33% 30.08 in 10.0 mi WNW 10.4 mph 19.6 mph N/A   Scattered Clouds
6:53 PM 55.0 °F - 26.1 °F 33% 30.08 in 10.0 mi WNW 15.0 mph 21.9 mph N/A   Mostly Cloudy
7:53 PM 55.0 °F - 28.0 °F 35% 30.08 in 10.0 mi WNW 11.5 mph - N/A   Overcast
8:53 PM 51.1 °F - 28.9 °F 43% 30.09 in 10.0 mi West 6.9 mph - N/A   Mostly Cloudy
9:53 PM 48.9 °F - 34.0 °F 56% 30.10 in 10.0 mi WSW 4.6 mph - N/A   Overcast
10:53 PM 48.9 °F - 33.1 °F 54% 30.11 in 10.0 mi WSW 5.8 mph - N/A   Mostly Cloudy
11:53 PM 46.9 °F - 34.0 °F 61% 30.11 in 10.0 mi WSW 5.8 mph - N/A   Mostly Cloudy